TimeMST,TemperatureF,Dew PointF,Humidity,Sea Level PressureIn,VisibilityMPH,Wind Direction,Wind SpeedMPH,Gust SpeedMPH,PrecipitationIn,Events,Conditions,WindDirDegrees,DateUTC
12:53 AM,28.9,23.0,78,29.83,10.0,SE,6.9,-,N/A,,Clear,130,2013-03-07 07:53:00
1:53 AM,26.1,21.9,84,29.83,10.0,East,9.2,-,N/A,,Clear,90,2013-03-07 08:53:00
2:53 AM,25.0,21.9,88,29.83,10.0,East,6.9,-,N/A,,Clear,100,2013-03-07 09:53:00
3:53 AM,23.0,19.9,88,29.86,10.0,Calm,Calm,-,N/A,,Clear,0,2013-03-07 10:53:00
4:53 AM,21.9,19.9,92,29.87,10.0,Variable,4.6,-,N/A,,Clear,0,2013-03-07 11:53:00
5:53 AM,23.0,19.9,88,29.93,10.0,WSW,9.2,-,N/A,,Clear,250,2013-03-07 12:53:00
6:53 AM,21.9,18.0,85,29.97,10.0,NW,5.8,-,N/A,,Clear,320,2013-03-07 13:53:00
7:53 AM,28.0,23.0,81,29.99,10.0,Calm,Calm,-,N/A,,Clear,0,2013-03-07 14:53:00
8:53 AM,34.0,25.0,70,29.99,10.0,WNW,5.8,-,N/A,,Partly Cloudy,300,2013-03-07 15:53:00
9:53 AM,41.0,26.1,55,29.98,10.0,West,5.8,-,N/A,,Clear,260,2013-03-07 16:53:00
10:53 AM,53.1,26.1,35,29.94,10.0,Calm,Calm,-,N/A,,Clear,0,2013-03-07 17:53:00
11:53 AM,60.1,24.1,25,29.91,10.0,North,3.5,-,N/A,,Clear,350,2013-03-07 18:53:00
12:53 PM,61.0,21.0,21,29.91,10.0,Variable,3.5,-,N/A,,Clear,0,2013-03-07 19:53:00
1:53 PM,62.1,19.9,20,29.90,10.0,Calm,Calm,-,N/A,,Clear,0,2013-03-07 20:53:00
2:53 PM,64.0,19.9,18,29.89,10.0,WSW,5.8,-,N/A,,Clear,240,2013-03-07 21:53:00
3:53 PM,64.0,19.9,18,29.89,10.0,SSW,4.6,-,N/A,,Partly Cloudy,200,2013-03-07 22:53:00
4:53 PM,61.0,19.0,20,29.91,10.0,SE,3.5,-,N/A,,Overcast,140,2013-03-07 23:53:00
5:53 PM,55.9,21.0,26,29.93,10.0,ENE,10.4,-,N/A,,Mostly Cloudy,60,2013-03-08 00:53:00
6:53 PM,50.0,24.1,36,29.98,10.0,ENE,17.3,-,N/A,,Clear,60,2013-03-08 01:53:00
7:53 PM,46.0,26.1,46,29.99,10.0,ENE,18.4,25.3,N/A,,Clear,70,2013-03-08 02:53:00
8:53 PM,43.0,25.0,49,30.00,10.0,ENE,23.0,29.9,N/A,,Clear,70,2013-03-08 03:53:00
9:53 PM,39.9,24.1,53,30.01,10.0,ENE,19.6,-,N/A,,Clear,70,2013-03-08 04:53:00
10:53 PM,37.9,24.1,57,29.99,10.0,ENE,15.0,-,N/A,,Clear,70,2013-03-08 05:53:00
11:53 PM,36.0,24.1,62,30.01,10.0,East,13.8,-,N/A,,Clear,80,2013-03-08 06:53:00